Location: Beaufort Park
(39.1418°N, 76.9433°W)
Time: 14:38:33
(UTC+00:00)

Daily predictions for brighter satellites

Satellite Brightness Start Highest point End
(mag) Time Altitude Azimuth Time Altitude Azimuth Time Altitude Azimuth
Cosmos 1606 Rocket 3.7 22:30:43 10° S 22:35:05 83° W 22:39:30 10° N
Aureole 3 3.2 22:33:35 10° SSE 22:36:32 36° E 22:39:18 10° NNE
Meteor 2-21 Rocket 4.4 22:30:36 10° N 22:36:46 70° E 22:42:49 10° SSE
CORIOLIS 4.1 22:32:54 10° SSE 22:38:12 72° ENE 22:43:33 10° N
Cosmos 1980 Rocket 3.7 22:36:44 10° SE 22:40:03 16° E 22:43:21 10° ENE
Cosmos 1455 3.8 22:38:05 10° SE 22:40:21 15° E 22:42:38 10° NE
CZ-2C R/B 4.4 22:41:01 10° ESE 22:45:12 21° ENE 22:49:18 10° NNE
Cosmos 2297 Rocket 2.4 22:39:51 10° NNW 22:45:20 48° ENE 22:50:47 10° SE
In-Cosmos 22 Rocket 4.5 22:42:14 10° N 22:47:22 43° ENE 22:52:35 10° SSE
USA 306 4.4 22:46:42 10° NNW 22:50:00 21° NNE 22:52:56 12° ENE
SKYMED 2 4.0 22:46:09 10° NNE 22:50:17 41° E 22:54:22 10° S
Okean-O 3.6 22:53:02 10° ESE 22:56:40 25° ENE 23:00:18 10° NNE
Meteor 2-10 Rocket 4.0 22:51:54 10° SSE 22:56:49 39° E 23:01:34 10° NNE
Timation 2 Rocket 4.2 22:50:08 10° NNW 22:56:50 88° WSW 23:03:42 10° SSE
SMAP 3.9 22:56:15 10° S 23:00:47 54° W 23:05:22 10° NNW
Cosmos 1553 Rocket 4.0 22:55:13 10° S 23:01:27 62° E 23:07:38 10° NNE
FengYun 1-2 T 4.3 22:57:12 10° SSE 23:02:51 89° ENE 23:08:30 10° NNW
Cosmos 1689 Rocket 2.2 23:00:37 10° NNE 23:03:26 47° E 23:06:13 10° S
Cosmos 1408 3.6 23:00:30 10° NNE 23:03:33 24° ENE 23:06:37 10° SE
H-2A R/B 3.3 23:00:28 10° ESE 23:04:24 21° ENE 23:08:21 10° NNE
MOS 1 Rocket 4.4 23:05:04 10° NE 23:08:59 24° E 23:13:04 10° SSE
Cosmos 1953 Rocket 4.3 23:05:52 10° NNW 23:10:13 57° W 23:14:35 10° S
Cosmos 44 Rocket 3.6 23:07:49 10° S 23:12:18 44° ESE 23:16:15 14° NE
Cosmos 2058 Rocket 3.6 23:09:06 10° SSW 23:13:32 65° W 23:18:02 10° N
Cosmos 2278 4.3 23:08:39 10° SSE 23:13:42 34° ESE 23:18:42 10° NE
Lacrosse 5 4.2 23:14:44 10° N 23:15:14 10° N 23:15:45 10° NNE
Cosmos 2219 3.3 23:13:33 10° NNW 23:19:20 84° WSW 23:25:04 10° SSE
Cosmos 1892 2.6 23:18:27 10° N 23:22:21 72° E 23:26:12 10° SSE
Cosmos 1939 Rocket 2.7 23:18:31 10° SSE 23:22:29 84° ENE 23:26:25 10° N
ARGOS 4.2 23:21:55 21° E 23:22:52 22° ENE 23:26:58 10° NNE
SL-08 R/B 4.4 23:18:57 10° N 23:25:07 82° E 23:31:13 10° S
Cosmos 1656 4.5 23:19:57 10° SW 23:25:22 53° WNW 23:30:54 10° NNE
Cosmos 1076 Rocket 3.9 23:21:33 10° N 23:25:30 37° ENE 23:29:27 10° SSE
Cosmos 968 Rocket 3.4 23:20:55 10° NNW 23:26:09 75° ENE 23:31:17 10° SSE
Cosmos 2082 3.9 23:20:52 10° NNW 23:26:24 47° ENE 23:31:53 10° SE
CZ-4B R/B 3.9 23:25:15 10° NNW 23:27:45 22° WNW 23:30:11 10° WSW
Aureole 3 Rocket 4.2 23:25:31 10° SSW 23:29:19 48° WNW 23:34:32 10° N
NOSS 3-3 (A) 4.0 23:25:48 10° SW 23:31:31 79° NW 23:37:57 10° NNE
NOSS 3-3 (C) 3.9 23:25:55 10° SW 23:31:38 80° NW 23:38:04 10° NNE
Cosmos 1745 Rocket 4.0 23:25:43 10° N 23:32:01 67° E 23:38:18 10° SSE
USA 307 3.6 23:30:13 10° NW 23:34:11 36° NNE 23:35:04 32° ENE
Cosmos 1825 2.5 23:33:41 10° N 23:37:07 41° ENE 23:37:07 41° ENE
IRS-1C Rocket 4.3 23:32:04 10° S 23:37:19 76° WSW 23:42:37 10° NNW
Cosmos 2369 3.7 23:32:24 10° SSW 23:38:07 87° ESE 23:43:51 10° NNE
COSMO-SKYMED 1 3.3 23:34:05 10° N 23:38:20 54° WNW 23:42:33 10° SSW
USA 308 3.5 23:35:10 10° NW 23:39:12 39° NE 23:39:51 36° ENE
GPS 2-04 Rocket1 3.4 23:36:19 10° WSW 23:40:09 42° SSE 23:41:13 35° SE
Cosmos 1386 Rocket 4.4 23:33:54 10° N 23:40:19 74° E 23:46:35 10° SSE
Helios 1A Rocket 2.8 23:36:59 10° SSE 23:41:07 89° ENE 23:45:14 10° NNW
CSL-04 Rocket 3.9 23:39:12 10° SE 23:44:23 46° ENE 23:49:38 10° N
OAO 2 Rocket 3.7 23:40:17 10° WSW 23:45:10 54° S 23:46:58 34° SE
CZ-2D R/B 3.5 23:41:44 10° S 23:45:31 69° W 23:49:18 10° NNW
YAOGAN 1 2.4 23:42:50 10° SSE 23:47:07 71° ENE 23:51:26 10° N
ATLAS 2AS CENTAUR R/B 3.7 23:41:09 10° NNW 23:47:19 27° NE 23:48:37 25° NE
Cosmos 2227 Rocket 2.7 23:44:20 10° NNW 23:49:55 61° WSW 23:55:28 10° S
CZ-4 R/B 1.2 23:47:18 10° SSE 23:51:12 85° W 23:55:04 10° NNW
Cosmos 2263 Rocket 3.6 23:47:10 10° N 23:50:16 21° NE 23:50:16 21° NE
Cosmos 1812 Rocket 3.5 23:49:23 10° S 23:53:47 86° W 23:58:11 10° N
